GONZO KMEM-KLIM

Flight info

Callsign GONZO
Flight time N/A
Altitude VFR
Route VFR WEST
Aircraft DA40/L-DOV/C

Departure

Time 2026-05-04 21:02
Airport Memphis International Airport (KMEM)

Arrival

Time N/A
Airport KLIM
Time Latitude Longitude Altitude Speed Heading
2026-05-04 21:02 35.01128 -90.05009 1772 ft 131 kts 257°
2026-05-04 21:02 35.00902 -90.06114 1665 ft 135 kts 258°
2026-05-04 21:02 35.00696 -90.07133 1842 ft 122 kts 256°
2026-05-04 21:02 35.00499 -90.08169 1804 ft 127 kts 259°
2026-05-04 21:03 35.00311 -90.09162 2060 ft 109 kts 255°
2026-05-04 21:03 35.00117 -90.09954 2462 ft 94 kts 256°
2026-05-04 21:03 34.99954 -90.10728 2701 ft 94 kts 256°
2026-05-04 21:03 34.99790 -90.11527 2903 ft 97 kts 259°
2026-05-04 21:04 34.99565 -90.12317 3009 ft 103 kts 250°
2026-05-04 21:04 34.99296 -90.13185 3077 ft 113 kts 250°
2026-05-04 21:04 34.98970 -90.14109 3067 ft 125 kts 248°
2026-05-04 21:04 34.98687 -90.15126 3024 ft 127 kts 253°
2026-05-04 21:05 34.98420 -90.16161 3016 ft 129 kts 253°
2026-05-04 21:05 34.98210 -90.17212 3012 ft 126 kts 256°
2026-05-04 21:05 34.97983 -90.18255 2952 ft 129 kts 254°
2026-05-04 21:05 34.97722 -90.19292 3027 ft 127 kts 254°
2026-05-04 21:06 34.97486 -90.20322 3052 ft 127 kts 257°
2026-05-04 21:06 34.97273 -90.21363 3031 ft 127 kts 254°
2026-05-04 21:06 34.97019 -90.22376 3104 ft 121 kts 250°
2026-05-04 21:06 34.96783 -90.23176 3582 ft 88 kts 251°
2026-05-04 21:07 34.96584 -90.23947 3668 ft 100 kts 253°
2026-05-04 21:07 34.96382 -90.24695 3992 ft 85 kts 252°
2026-05-04 21:07 34.96197 -90.25391 4156 ft 89 kts 251°
2026-05-04 21:07 34.95982 -90.26109 4352 ft 88 kts 250°
2026-05-04 21:08 34.95784 -90.26824 4521 ft 92 kts 255°
2026-05-04 21:08 34.95609 -90.27647 4537 ft 108 kts 256°
2026-05-04 21:08 34.95404 -90.28589 4517 ft 121 kts 257°
2026-05-04 21:08 34.95182 -90.29601 4567 ft 123 kts 256°
2026-05-04 21:09 34.94946 -90.30634 4485 ft 129 kts 254°
2026-05-04 21:09 34.94696 -90.31687 4471 ft 128 kts 256°
2026-05-04 21:09 34.94485 -90.32743 4438 ft 131 kts 259°
2026-05-04 21:09 34.94306 -90.33840 4446 ft 131 kts 261°
2026-05-04 21:10 34.94213 -90.34917 4466 ft 129 kts 269°
2026-05-04 21:10 34.94283 -90.36039 4460 ft 131 kts 276°
2026-05-04 21:10 34.94375 -90.37119 4514 ft 129 kts 274°
2026-05-04 21:10 34.94399 -90.38214 4504 ft 130 kts 265°
2026-05-04 21:11 34.94174 -90.39279 4502 ft 130 kts 253°
2026-05-04 21:11 34.93898 -90.40317 4502 ft 128 kts 252°
2026-05-04 21:11 34.93622 -90.41348 4503 ft 127 kts 252°
2026-05-04 21:11 34.93346 -90.42375 4503 ft 128 kts 252°
2026-05-04 21:12 34.93070 -90.43404 4496 ft 127 kts 252°
2026-05-04 21:12 34.92795 -90.44426 4496 ft 127 kts 252°
2026-05-04 21:12 34.92525 -90.45437 4500 ft 127 kts 252°
2026-05-04 21:12 34.92300 -90.46477 4497 ft 126 kts 260°
2026-05-04 21:13 34.92160 -90.47533 4498 ft 127 kts 262°
2026-05-04 21:13 34.92031 -90.48597 4501 ft 128 kts 265°
2026-05-04 21:13 34.92013 -90.49686 4502 ft 129 kts 274°
2026-05-04 21:13 34.92099 -90.50764 4498 ft 127 kts 276°
2026-05-04 21:14 34.92194 -90.51827 4499 ft 126 kts 276°
2026-05-04 21:14 34.92290 -90.52887 4501 ft 126 kts 276°
2026-05-04 21:14 34.92354 -90.53590 4502 ft 126 kts 276°
2026-05-04 21:14 34.92485 -90.55018 4502 ft 129 kts 276°
2026-05-04 21:15 34.92582 -90.56100 4498 ft 128 kts 276°
2026-05-04 21:15 34.92647 -90.56811 4499 ft 127 kts 276°
2026-05-04 21:15 34.92744 -90.57877 4499 ft 126 kts 277°
2026-05-04 21:15 34.92843 -90.58947 4499 ft 127 kts 276°
2026-05-04 21:16 34.92940 -90.60017 4498 ft 127 kts 276°
2026-05-04 21:16 34.93038 -90.61085 4499 ft 127 kts 276°
2026-05-04 21:16 34.93135 -90.62150 4498 ft 126 kts 276°
2026-05-04 21:16 34.93232 -90.63211 4499 ft 126 kts 276°
2026-05-04 21:17 34.93330 -90.64275 4506 ft 128 kts 276°
2026-05-04 21:17 34.93428 -90.65354 4503 ft 128 kts 276°
2026-05-04 21:17 34.93527 -90.66437 4500 ft 128 kts 276°
2026-05-04 21:17 34.93626 -90.67510 4499 ft 127 kts 276°
2026-05-04 21:18 34.93723 -90.68579 4506 ft 128 kts 276°
2026-05-04 21:18 34.93823 -90.69658 4498 ft 127 kts 276°
2026-05-04 21:18 34.93920 -90.70727 4508 ft 128 kts 276°
2026-05-04 21:18 34.94051 -90.71797 4499 ft 127 kts 282°
2026-05-04 21:19 34.94264 -90.72842 4501 ft 126 kts 284°
2026-05-04 21:19 34.94506 -90.73856 4501 ft 126 kts 287°
2026-05-04 21:19 34.94794 -90.74863 4500 ft 126 kts 290°
2026-05-04 21:19 34.95105 -90.75858 4502 ft 126 kts 293°
2026-05-04 21:20 34.95486 -90.76820 4501 ft 126 kts 299°
2026-05-04 21:20 34.95887 -90.77766 4495 ft 126 kts 288°
2026-05-04 21:20 34.95840 -90.78823 4499 ft 127 kts 255°
2026-05-04 21:20 34.95580 -90.79853 4500 ft 127 kts 252°
2026-05-04 21:21 34.95306 -90.80892 4499 ft 130 kts 252°
2026-05-04 21:21 34.95030 -90.81940 4498 ft 130 kts 252°
2026-05-04 21:21 34.94751 -90.82988 4493 ft 129 kts 252°
2026-05-04 21:21 34.94478 -90.84023 4494 ft 127 kts 252°
2026-05-04 21:22 34.94208 -90.85047 4494 ft 126 kts 252°
2026-05-04 21:22 34.93939 -90.86065 4495 ft 126 kts 252°
2026-05-04 21:22 34.93671 -90.87086 4503 ft 127 kts 252°
2026-05-04 21:22 34.93397 -90.88126 4501 ft 130 kts 252°
2026-05-04 21:23 34.93120 -90.89178 4497 ft 129 kts 253°
2026-05-04 21:23 34.92848 -90.90216 4495 ft 127 kts 252°
2026-05-04 21:23 34.92579 -90.91229 4494 ft 127 kts 252°
2026-05-04 21:23 34.92308 -90.92255 4500 ft 128 kts 252°
2026-05-04 21:24 34.92035 -90.93291 4493 ft 128 kts 252°
2026-05-04 21:24 34.91765 -90.94314 4495 ft 126 kts 252°
2026-05-04 21:24 34.91494 -90.95339 4496 ft 127 kts 252°
2026-05-04 21:24 34.91226 -90.96365 4492 ft 127 kts 252°
2026-05-04 21:25 34.90955 -90.97388 4497 ft 127 kts 252°
2026-05-04 21:25 34.90682 -90.98420 4494 ft 128 kts 252°
2026-05-04 21:25 34.90413 -90.99448 4496 ft 126 kts 252°
2026-05-04 21:25 34.90146 -91.00468 4494 ft 126 kts 252°
2026-05-04 21:26 34.89878 -91.01488 4495 ft 127 kts 252°
2026-05-04 21:26 34.89610 -91.02511 4495 ft 126 kts 252°
2026-05-04 21:26 34.89343 -91.03529 4502 ft 127 kts 252°
2026-05-04 21:26 34.89073 -91.04563 4499 ft 129 kts 253°
2026-05-04 21:27 34.88801 -91.05601 4498 ft 128 kts 252°
2026-05-04 21:27 34.88532 -91.06632 4519 ft 125 kts 252°
2026-05-04 21:27 34.88314 -91.07653 4502 ft 127 kts 268°
2026-05-04 21:27 34.88445 -91.08710 4505 ft 127 kts 281°
2026-05-04 21:28 34.88681 -91.09741 4505 ft 126 kts 287°
2026-05-04 21:28 34.88968 -91.10751 4506 ft 126 kts 290°
2026-05-04 21:28 34.89210 -91.11788 4492 ft 129 kts 275°
2026-05-04 21:28 34.89123 -91.12869 4496 ft 130 kts 255°
2026-05-04 21:29 34.88861 -91.13928 4496 ft 131 kts 253°
2026-05-04 21:29 34.88625 -91.14991 4484 ft 130 kts 266°
2026-05-04 21:29 34.88724 -91.16063 4493 ft 128 kts 265°
2026-05-04 21:29 34.88487 -91.17099 4488 ft 127 kts 265°
2026-05-04 21:30 34.88661 -91.18147 4498 ft 129 kts 278°
2026-05-04 21:30 34.88528 -91.19221 4499 ft 129 kts 255°
2026-05-04 21:30 34.88280 -91.20267 4494 ft 128 kts 254°
2026-05-04 21:30 34.88032 -91.21290 4501 ft 128 kts 254°
2026-05-04 21:31 34.87545 -91.23280 4502 ft 130 kts 254°
2026-05-04 21:31 34.87290 -91.24336 4497 ft 128 kts 253°
2026-05-04 21:31 34.87034 -91.25376 4498 ft 128 kts 253°
2026-05-04 21:32 34.86860 -91.26438 4491 ft 128 kts 271°
2026-05-04 21:32 34.86949 -91.27510 4499 ft 127 kts 278°
2026-05-04 21:32 34.87083 -91.28571 4496 ft 126 kts 279°
2026-05-04 21:32 34.87217 -91.29625 4496 ft 126 kts 279°
2026-05-04 21:33 34.87350 -91.30679 4496 ft 126 kts 278°
2026-05-04 21:33 34.87386 -91.31741 4488 ft 126 kts 285°
2026-05-04 21:33 34.87558 -91.32770 4488 ft 126 kts 263°
2026-05-04 21:33 34.87365 -91.33793 4496 ft 126 kts 262°
2026-05-04 21:34 34.87439 -91.34851 4499 ft 125 kts 279°
2026-05-04 21:34 34.87345 -91.35899 4496 ft 126 kts 255°
2026-05-04 21:34 34.87104 -91.36921 4497 ft 126 kts 254°
2026-05-04 21:34 34.86859 -91.37944 4504 ft 127 kts 254°
2026-05-04 21:35 34.86602 -91.38987 4494 ft 129 kts 254°
2026-05-04 21:35 34.86532 -91.40053 4499 ft 127 kts 269°
2026-05-04 21:35 34.86335 -91.41093 4494 ft 126 kts 253°
2026-05-04 21:35 34.86073 -91.42111 4501 ft 127 kts 253°
2026-05-04 21:36 34.85807 -91.43146 4495 ft 128 kts 253°
2026-05-04 21:36 34.85540 -91.44175 4495 ft 127 kts 253°
2026-05-04 21:36 34.85277 -91.45195 4500 ft 126 kts 253°
2026-05-04 21:36 34.85012 -91.46216 4498 ft 127 kts 253°
2026-05-04 21:37 34.84747 -91.47242 4500 ft 127 kts 253°
2026-05-04 21:37 34.84482 -91.48266 4499 ft 126 kts 253°
2026-05-04 21:37 34.84219 -91.49285 4496 ft 126 kts 253°
2026-05-04 21:37 34.83959 -91.50289 4496 ft 126 kts 253°
2026-05-04 21:38 34.83697 -91.51305 4497 ft 126 kts 253°
2026-05-04 21:38 34.83434 -91.52320 4497 ft 126 kts 253°
2026-05-04 21:38 34.83173 -91.53335 4498 ft 126 kts 253°
2026-05-04 21:38 34.82912 -91.54348 4499 ft 126 kts 253°
2026-05-04 21:39 34.82650 -91.55364 4497 ft 126 kts 253°
2026-05-04 21:39 34.82389 -91.56380 4495 ft 126 kts 253°
2026-05-04 21:39 34.82128 -91.57401 4495 ft 127 kts 253°
2026-05-04 21:39 34.81862 -91.58424 4504 ft 127 kts 253°
2026-05-04 21:40 34.81597 -91.59462 4501 ft 129 kts 253°
2026-05-04 21:40 34.81332 -91.60494 4501 ft 130 kts 253°
2026-05-04 21:40 34.81063 -91.61543 4495 ft 129 kts 253°
2026-05-04 21:40 34.80800 -91.62574 4535 ft 124 kts 253°
2026-05-04 21:41 34.80543 -91.63572 4563 ft 125 kts 253°
2026-05-04 21:41 34.80281 -91.64593 4556 ft 126 kts 253°
2026-05-04 21:41 34.80020 -91.65611 4560 ft 126 kts 253°
2026-05-04 21:41 34.79809 -91.66654 4557 ft 128 kts 268°
2026-05-04 21:42 34.79972 -91.67723 4556 ft 130 kts 272°
2026-05-04 21:42 34.80083 -91.68807 4558 ft 129 kts 284°
2026-05-04 21:42 34.80054 -91.69875 4564 ft 126 kts 261°
2026-05-04 21:42 34.79902 -91.70932 4563 ft 128 kts 260°
2026-05-04 21:43 34.79745 -91.72000 4569 ft 129 kts 260°
2026-05-04 21:43 34.79586 -91.73079 4565 ft 129 kts 260°
2026-05-04 21:43 34.79429 -91.74148 4569 ft 129 kts 260°
2026-05-04 21:43 34.79273 -91.75224 4567 ft 128 kts 260°
2026-05-04 21:44 34.79115 -91.76298 4567 ft 129 kts 260°
2026-05-04 21:44 34.78957 -91.77380 4569 ft 130 kts 260°
2026-05-04 21:44 34.78798 -91.78468 4565 ft 130 kts 260°
2026-05-04 21:44 34.78643 -91.79526 4564 ft 128 kts 260°
2026-05-04 21:45 34.78488 -91.80586 4564 ft 127 kts 260°
2026-05-04 21:45 34.78333 -91.81652 4564 ft 126 kts 260°
2026-05-04 21:45 34.78179 -91.82702 4564 ft 126 kts 260°
2026-05-04 21:45 34.78025 -91.83750 4569 ft 126 kts 260°
2026-05-04 21:46 34.77870 -91.84814 4567 ft 129 kts 260°
2026-05-04 21:46 34.77715 -91.85876 4571 ft 130 kts 260°
2026-05-04 21:46 34.77572 -91.86966 4570 ft 131 kts 264°
2026-05-04 21:46 34.77478 -91.88071 4570 ft 131 kts 263°
2026-05-04 21:47 34.77360 -91.89173 4562 ft 130 kts 262°
2026-05-04 21:47 34.77227 -91.90249 4564 ft 127 kts 261°
2026-05-04 21:47 34.77090 -91.91307 4564 ft 126 kts 261°
2026-05-04 21:47 34.76951 -91.92368 4570 ft 128 kts 261°
2026-05-04 21:48 34.76810 -91.93446 4568 ft 129 kts 261°
2026-05-04 21:48 34.76668 -91.94520 4566 ft 129 kts 261°
2026-05-04 21:48 34.76527 -91.95596 4570 ft 128 kts 261°
2026-05-04 21:48 34.76384 -91.96665 4563 ft 128 kts 261°
2026-05-04 21:49 34.76238 -91.97735 4568 ft 129 kts 258°
2026-05-04 21:49 34.75730 -91.98617 4552 ft 132 kts 213°
2026-05-04 21:49 34.74915 -91.99096 4558 ft 130 kts 219°
2026-05-04 21:49 34.74393 -91.99979 4563 ft 129 kts 241°
2026-05-04 21:50 34.74071 -92.00994 4564 ft 128 kts 253°
2026-05-04 21:50 34.73822 -92.02021 4564 ft 128 kts 254°
2026-05-04 21:50 34.73575 -92.03066 4563 ft 129 kts 254°
2026-05-04 21:50 34.73334 -92.04120 4563 ft 129 kts 256°
2026-05-04 21:51 34.73145 -92.05188 4566 ft 129 kts 259°
2026-05-04 21:51 34.72976 -92.06259 4560 ft 128 kts 260°
2026-05-04 21:51 34.72857 -92.07326 4561 ft 127 kts 264°
2026-05-04 21:51 34.72778 -92.08399 4560 ft 128 kts 266°
2026-05-04 21:52 34.72768 -92.09485 4568 ft 130 kts 270°
2026-05-04 21:52 34.72773 -92.10589 4560 ft 129 kts 270°
2026-05-04 21:52 34.72764 -92.11675 4568 ft 128 kts 269°
2026-05-04 21:52 34.72733 -92.12751 4522 ft 129 kts 266°
2026-05-04 21:53 34.72684 -92.13851 4479 ft 129 kts 271°
2026-05-04 21:53 34.72745 -92.14917 4380 ft 126 kts 276°
2026-05-04 21:53 34.72854 -92.15993 4154 ft 130 kts 277°
2026-05-04 21:53 34.72969 -92.17055 4035 ft 125 kts 279°
2026-05-04 21:54 34.73258 -92.18047 3883 ft 127 kts 298°
2026-05-04 21:54 34.73724 -92.18969 3761 ft 127 kts 301°
2026-05-04 21:54 34.74168 -92.19891 3607 ft 126 kts 302°
2026-05-04 21:54 34.74654 -92.20783 3409 ft 126 kts 306°
2026-05-04 21:55 34.75170 -92.21617 3214 ft 121 kts 306°
2026-05-04 21:55 34.75582 -92.22516 2981 ft 122 kts 284°
2026-05-04 21:55 34.75422 -92.23429 2953 ft 111 kts 225°
2026-05-04 21:55 34.74663 -92.23820 2647 ft 124 kts 212°
2026-05-04 21:56 34.73915 -92.24083 2624 ft 114 kts 171°
2026-05-04 21:56 34.73232 -92.23491 2373 ft 121 kts 135°
2026-05-04 21:56 34.72689 -92.22783 2352 ft 108 kts 132°
2026-05-04 21:56 34.72212 -92.22083 2193 ft 113 kts 131°
2026-05-04 21:57 34.71696 -92.21370 2101 ft 110 kts 134°
2026-05-04 21:57 34.71235 -92.20626 1929 ft 115 kts 110°
2026-05-04 21:57 34.71332 -92.19744 1902 ft 98 kts 63°
2026-05-04 21:57 34.71724 -92.19080 1773 ft 100 kts 41°
2026-05-04 21:58 34.72237 -92.18535 1673 ft 94 kts 42°
2026-05-04 21:58 34.72738 -92.18007 1338 ft 97 kts 38°
2026-05-04 21:58 34.73259 -92.17565 1319 ft 89 kts 34°
2026-05-04 21:58 34.73749 -92.17116 1318 ft 88 kts 33°
2026-05-04 21:59 34.74299 -92.17104 1297 ft 88 kts 322°
2026-05-04 21:59 34.74713 -92.17645 1252 ft 88 kts 285°
2026-05-04 21:59 34.74679 -92.18379 905 ft 90 kts 251°
2026-05-04 21:59 34.74401 -92.18969 625 ft 78 kts 233°
2026-05-04 22:00 34.74055 -92.19429 472 ft 71 kts 223°
2026-05-04 22:00 34.73830 -92.19710 406 ft 68 kts 229°
2026-05-04 22:00 34.73401 -92.20253 271 ft 59 kts 226°
2026-05-04 22:00 34.73258 -92.20430 265 ft 18 kts 227°
2026-05-04 22:01 34.73187 -92.20530 264 ft 20 kts 227°
2026-05-04 22:01 34.73046 -92.20714 263 ft 23 kts 227°
2026-05-04 22:01 34.72939 -92.20850 260 ft 21 kts 228°
2026-05-04 22:01 34.72856 -92.20969 260 ft 15 kts 238°
2026-05-04 22:02 34.72822 -92.21041 259 ft 15 kts 250°
2026-05-04 22:02 34.72791 -92.21154 258 ft 13 kts 266°
2026-05-04 22:02 34.72793 -92.21185 259 ft 0 kts 292°
2026-05-04 22:03 34.72804 -92.21222 259 ft 11 kts 292°
2026-05-04 22:03 34.72835 -92.21303 260 ft 10 kts 296°
2026-05-04 22:03 34.72863 -92.21378 260 ft 10 kts 294°
2026-05-04 22:04 34.72891 -92.21453 260 ft 11 kts 294°
2026-05-04 22:04 34.72925 -92.21542 261 ft 13 kts 296°
2026-05-04 22:04 34.72962 -92.21644 264 ft 13 kts 294°
2026-05-04 22:04 34.73004 -92.21755 259 ft 17 kts 291°
2026-05-04 22:05 34.73010 -92.21786 262 ft 6 kts 275°
2026-05-04 22:05 34.72990 -92.21840 261 ft 7 kts 218°
2026-05-04 22:05 34.72936 -92.21880 261 ft 10 kts 209°
2026-05-04 22:05 34.72892 -92.21904 262 ft 5 kts 210°
2026-05-04 22:06 34.72875 -92.21916 262 ft 5 kts 191°
2026-05-04 22:06 34.72842 -92.21926 263 ft 7 kts 201°
2026-05-04 22:06 34.72802 -92.21938 264 ft 5 kts 168°
2026-05-04 22:06 34.72800 -92.21937 264 ft 0 kts 115°